"startDT [UTC]","vpos","CH4 [ppm]","stdev(CH4) [ppm]","CO2 [ppm]","stdev(CO2) [ppm]","H2O [ppm]","stdev(H2O)","p_LGR [torr]","T_LGR [C]","mt1_LGR [us]","mt2_LGR [us]","T_ECpre [C]","T_EC1 [C]","T_EC2 [C]","p_inlet [hPa]","p_in [hPa]","p_out [hPa]","T_inlet [C]","RH_inlet [%]","dwpt_inlet [C]","T_vent [C]","RH_vent [%]","dwpt_vent [C]","flow_vent [l min-1]","flow_inlet [l min-1]","dwpt_sample [C]","T_room [C]"
2012-06-24 00:00:00,0.0,1.8756,0.0010,392.22,0.43,270.5,34.1,137.97,35.10,24.64,36.37,0.97,-25.18,19.17,-66,555,-936,30.4,13.1,-1.0,30.4,1.1,-31.1,5.73,2.29,-26.0,34.4
2012-06-24 00:01:00,0.0,1.8758,0.0009,392.37,0.34,272.4,29.3,137.97,35.11,24.64,36.36,0.97,-25.19,19.21,-66,555,-935,30.4,13.1,-1.0,30.3,1.1,-31.1,5.73,2.27,-26.0,34.4
2012-06-24 00:02:00,0.0,1.8760,0.0009,392.24,0.34,271.4,25.5,137.97,35.11,24.64,36.36,0.97,-25.18,19.23,-66,555,-935,30.4,13.4,-0.7,30.3,1.0,-31.1,5.73,2.30,-26.0,34.4
2012-06-24 00:03:00,0.0,1.8757,0.0008,392.20,0.32,276.1,31.7,137.97,35.11,24.64,36.37,0.97,-25.18,19.25,-66,555,-935,30.4,13.3,-0.8,30.3,1.1,-31.1,5.73,2.30,-26.0,34.4
2012-06-24 00:04:00,0.0,1.8755,0.0008,392.03,0.39,267.5,26.1,137.97,35.11,24.64,36.37,0.97,-25.18,19.28,-66,555,-936,30.4,13.5,-0.6,30.3,1.0,-31.1,5.73,2.27,-26.0,34.4
2012-06-24 00:05:00,0.0,1.8754,0.0010,392.28,0.35,267.3,30.5,137.97,35.11,24.64,36.36,0.97,-25.18,19.30,-66,555,-935,30.4,13.1,-1.0,30.4,1.0,-31.1,5.73,2.27,-26.0,34.4
2012-06-24 00:06:00,0.0,1.8752,0.0010,392.23,0.35,271.1,26.1,137.97,35.11,24.64,36.36,0.97,-25.19,19.32,-66,555,-935,30.4,13.2,-0.9,30.3,1.0,-31.2,5.73,2.31,-26.0,34.3
2012-06-24 00:07:00,0.0,1.8754,0.0011,392.14,0.44,269.0,32.4,137.97,35.11,24.65,36.37,0.97,-25.19,19.34,-66,555,-935,30.5,13.2,-0.9,30.4,1.0,-31.1,5.73,2.29,-26.0,34.4
2012-06-24 00:08:00,0.0,1.8758,0.0009,392.21,0.42,269.3,30.3,137.97,35.11,24.64,36.37,0.97,-25.19,19.36,-66,555,-936,30.5,13.1,-0.9,30.4,1.1,-31.0,5.73,2.27,-26.0,34.4
2012-06-24 00:09:00,0.0,1.8756,0.0009,392.13,0.35,272.4,29.9,137.97,35.11,24.65,36.37,0.97,-25.19,19.38,-66,555,-935,30.4,13.3,-0.8,30.3,1.1,-31.1,5.73,2.29,-26.0,34.3
2012-06-24 00:10:00,0.0,1.8758,0.0011,392.09,0.44,271.1,28.8,137.97,35.11,24.64,36.37,0.96,-25.19,19.40,-66,555,-935,30.4,13.3,-0.8,30.3,1.0,-31.1,5.73,2.30,-26.0,34.3
2012-06-24 00:11:00,0.0,1.8761,0.0009,392.00,0.38,268.2,32.8,137.97,35.11,24.64,36.37,0.97,-25.19,19.41,-66,555,-935,30.4,13.7,-0.4,30.4,1.0,-31.1,5.73,2.28,-26.0,34.4
2012-06-24 00:12:00,0.0,1.8759,0.0009,392.06,0.36,267.0,29.9,137.97,35.11,24.64,36.36,0.96,-25.18,19.43,-66,555,-935,30.4,13.3,-0.8,30.4,1.0,-31.2,5.73,2.28,-26.0,34.4
2012-06-24 00:13:00,0.0,1.8758,0.0010,392.20,0.44,265.3,31.2,137.97,35.11,24.64,36.36,0.97,-25.19,19.45,-66,555,-935,30.5,13.4,-0.7,30.4,1.0,-31.1,5.73,2.31,-26.0,34.4
2012-06-24 00:14:00,0.0,1.8756,0.0011,392.06,0.36,266.9,31.6,137.97,35.11,24.64,36.37,0.97,-25.19,19.46,-66,555,-935,30.4,13.4,-0.7,30.4,1.0,-31.2,5.73,2.30,-26.0,34.4
2012-06-24 00:15:00,0.0,1.8757,0.0009,392.20,0.36,275.2,30.4,137.97,35.11,24.64,36.36,0.96,-25.18,19.48,-66,555,-935,30.5,13.1,-1.0,30.4,1.1,-30.9,5.73,2.27,-26.0,34.4
2012-06-24 00:16:00,0.0,1.8757,0.0010,392.16,0.42,267.8,35.7,137.97,35.11,24.64,36.36,0.97,-25.19,19.49,-66,555,-934,30.5,13.2,-0.9,30.4,1.0,-31.2,5.73,2.29,-26.0,34.4
2012-06-24 00:17:00,0.0,1.8755,0.0009,392.36,0.39,269.9,28.3,137.97,35.11,24.64,36.36,1.03,-25.18,19.00,-66,555,-935,30.5,12.9,-1.2,30.4,1.1,-31.1,5.73,2.30,-26.0,34.4
2012-06-24 00:18:00,0.0,1.8756,0.0010,392.35,0.40,273.9,30.0,137.97,35.11,24.64,36.37,1.11,-25.18,17.05,-66,555,-935,30.5,12.8,-1.3,30.4,1.0,-31.2,5.73,2.28,-26.0,34.4
2012-06-24 00:19:00,0.0,1.8755,0.0009,392.18,0.47,278.4,25.1,137.97,35.12,24.64,36.37,1.11,-25.18,14.70,-66,555,-935,30.5,13.2,-0.8,30.4,1.0,-31.1,5.73,2.28,-26.0,34.4
2012-06-24 00:20:00,0.0,1.8757,0.0010,392.09,0.41,268.5,28.1,137.97,35.12,24.64,36.36,1.01,-25.19,12.31,-66,555,-935,30.5,13.3,-0.8,30.4,1.1,-31.0,5.73,2.31,-26.0,34.4
2012-06-24 00:21:00,0.0,1.8759,0.0009,392.21,0.39,274.0,30.1,137.97,35.12,24.64,36.36,1.08,-25.19,9.98,-66,555,-934,30.5,13.6,-0.5,30.4,1.0,-31.2,5.73,2.29,-26.0,34.4
2012-06-24 00:22:00,0.0,1.8758,0.0009,392.07,0.39,269.1,29.6,137.97,35.12,24.64,36.36,1.13,-25.20,7.76,-66,555,-934,30.5,13.3,-0.8,30.4,1.1,-31.0,5.73,2.27,-26.0,34.4
2012-06-24 00:23:00,0.0,1.8753,0.0010,392.20,0.38,276.4,31.5,137.97,35.12,24.64,36.36,1.02,-25.19,5.63,-66,555,-935,30.5,13.2,-0.8,30.4,1.0,-31.1,5.73,2.29,-26.0,34.4
2012-06-24 00:24:00,0.0,1.8758,0.0010,392.11,0.37,269.0,28.2,137.97,35.12,24.64,36.36,1.10,-25.19,3.59,-66,555,-935,30.5,13.5,-0.6,30.4,1.0,-31.1,5.73,2.30,-26.0,34.4
2012-06-24 00:25:00,0.0,1.8759,0.0010,392.12,0.34,281.9,27.5,137.97,35.12,24.64,36.36,1.11,-25.19,1.67,-66,555,-935,30.5,13.5,-0.5,30.4,1.1,-31.1,5.73,2.27,-26.0,34.4
2012-06-24 00:26:00,0.0,1.8759,0.0010,391.87,0.35,274.9,29.6,137.97,35.12,24.64,36.37,1.02,-25.19,-0.14,-66,555,-934,30.5,13.8,-0.2,30.4,1.0,-31.1,5.73,2.27,-26.0,34.4
2012-06-24 00:27:00,0.0,1.8765,0.0010,391.96,0.39,271.0,32.0,137.97,35.12,24.64,36.36,1.08,-25.18,-1.65,-66,555,-934,30.5,14.0,-0.1,30.4,1.0,-31.2,5.73,2.31,-26.0,34.4
2012-06-24 00:28:00,0.0,1.8769,0.0009,391.72,0.39,267.2,30.4,137.97,35.12,24.65,36.36,1.12,-25.17,-3.17,-66,555,-935,30.5,14.4,0.3,30.4,1.1,-31.0,5.73,2.29,-26.0,34.4
2012-06-24 00:29:00,0.0,1.8766,0.0011,391.61,0.49,275.3,34.0,137.97,35.12,24.65,36.37,1.02,-25.17,-4.58,-66,555,-935,30.5,14.2,0.1,30.4,1.0,-31.3,5.73,2.27,-26.0,34.4
2012-06-24 00:30:00,0.0,1.8767,0.0010,391.86,0.39,272.4,32.1,137.97,35.12,24.65,36.36,1.05,-25.17,-6.00,-66,555,-935,30.5,14.1,0.0,30.4,1.0,-31.1,5.73,2.29,-26.0,34.4
2012-06-24 00:31:00,0.0,1.8772,0.0009,391.71,0.42,269.1,31.5,137.97,35.12,24.64,36.36,1.13,-25.17,-7.32,-66,555,-934,30.5,14.5,0.4,30.4,1.0,-31.1,5.73,2.30,-26.0,34.4
2012-06-24 00:32:00,0.0,1.8771,0.0009,391.74,0.40,266.6,26.6,137.97,35.12,24.64,36.36,1.04,-25.17,-8.53,-66,555,-934,30.5,14.4,0.3,30.4,1.0,-31.1,5.73,2.27,-26.0,34.4
2012-06-24 00:33:00,0.0,1.8772,0.0010,391.71,0.37,270.9,31.9,137.97,35.13,24.64,36.36,1.02,-25.17,-9.63,-66,555,-935,30.5,14.1,0.1,30.4,1.0,-31.2,5.73,2.27,-26.0,34.4
2012-06-24 00:34:00,0.0,1.8772,0.0010,391.95,0.40,278.7,29.6,137.97,35.13,24.64,36.36,1.09,-25.17,-10.60,-66,555,-935,30.5,14.1,0.0,30.4,1.0,-31.1,5.73,2.30,-26.0,34.5
2012-06-24 00:35:00,0.0,1.8776,0.0010,391.64,0.33,273.9,30.4,137.97,35.13,24.64,36.37,1.11,-25.18,-11.66,-66,555,-934,30.5,14.3,0.3,30.4,1.1,-31.1,5.73,2.29,-26.0,34.5
2012-06-24 00:36:00,0.0,1.8771,0.0011,391.86,0.36,267.0,29.6,137.97,35.13,24.64,36.36,1.02,-25.17,-12.68,-66,555,-934,30.5,14.0,-0.1,30.4,1.1,-31.1,5.73,2.26,-26.0,34.4
2012-06-24 00:37:00,0.0,1.8771,0.0010,391.84,0.40,275.7,28.4,137.97,35.13,24.64,36.36,1.02,-25.19,-13.60,-66,555,-934,30.5,14.3,0.2,30.4,1.1,-31.0,5.73,2.29,-26.0,34.4
2012-06-24 00:38:00,0.0,1.8779,0.0009,391.69,0.39,272.5,33.3,137.97,35.13,24.64,36.36,1.09,-25.18,-14.51,-66,555,-935,30.5,14.6,0.6,30.4,1.0,-31.1,5.73,2.30,-26.0,34.4
2012-06-24 00:39:00,0.0,1.8779,0.0008,391.57,0.41,273.3,29.8,137.97,35.13,24.64,36.36,1.09,-25.19,-15.40,-66,555,-935,30.5,14.8,0.7,30.4,1.1,-31.0,5.73,2.28,-26.0,34.3
2012-06-24 00:40:00,0.0,1.8778,0.0008,391.49,0.38,271.7,27.3,137.97,35.13,24.64,36.36,1.03,-25.20,-16.22,-66,555,-934,30.5,14.9,0.9,30.4,1.0,-31.2,5.73,2.27,-26.0,34.3
2012-06-24 00:41:00,0.0,1.8777,0.0010,391.45,0.35,277.1,32.1,137.97,35.13,24.64,36.36,1.02,-25.20,-16.99,-66,555,-934,30.5,14.8,0.8,30.4,1.0,-31.3,5.73,2.30,-26.0,34.4
2012-06-24 00:42:00,0.0,1.8773,0.0010,391.43,0.46,280.3,31.0,137.97,35.13,24.64,36.37,1.09,-25.21,-17.59,-66,555,-934,30.5,14.5,0.5,30.4,1.0,-31.2,5.73,2.29,-26.0,34.4
2012-06-24 00:43:00,0.0,1.8771,0.0010,391.50,0.38,274.3,31.0,137.97,35.13,24.64,36.37,1.09,-25.22,-18.28,-66,555,-935,30.5,14.6,0.5,30.4,1.0,-31.1,5.73,2.27,-26.0,34.4
2012-06-24 00:44:00,0.0,1.8771,0.0010,391.75,0.40,269.7,37.3,137.97,35.14,24.64,36.37,1.01,-25.23,-18.94,-66,555,-935,30.5,13.8,-0.3,30.4,1.0,-31.1,5.73,2.28,-26.0,34.3
2012-06-24 00:45:00,0.0,1.8759,0.0009,392.00,0.41,273.1,30.7,137.97,35.14,24.64,36.37,1.01,-25.23,-19.57,-66,555,-934,30.5,13.5,-0.5,30.4,1.0,-31.2,5.73,2.31,-26.0,34.4
2012-06-24 00:46:00,0.0,1.8761,0.0009,391.89,0.38,276.6,27.3,137.97,35.14,24.64,36.37,1.07,-25.25,-20.16,-66,555,-934,30.5,13.8,-0.2,30.4,1.0,-31.1,5.73,2.28,-26.0,34.4
2012-06-24 00:47:00,0.0,1.8769,0.0009,391.69,0.37,275.7,28.3,137.97,35.14,24.64,36.37,1.10,-25.26,-20.71,-66,555,-934,30.5,14.1,0.0,30.4,1.1,-31.1,5.73,2.27,-26.0,34.4
2012-06-24 00:48:00,0.0,1.8762,0.0010,391.89,0.44,265.2,29.1,137.97,35.14,24.64,36.37,1.01,-25.27,-21.22,-66,555,-935,30.4,13.5,-0.5,30.4,1.0,-31.1,5.73,2.30,-26.0,34.4
2012-06-24 00:49:00,0.0,1.8762,0.0010,391.97,0.39,268.3,28.5,137.97,35.14,24.64,36.37,1.01,-25.28,-21.71,-66,555,-935,30.5,13.2,-0.8,30.4,1.1,-31.0,5.73,2.29,-26.0,34.4
2012-06-24 00:50:00,0.0,1.8760,0.0009,392.00,0.35,279.0,34.9,137.97,35.14,24.65,36.37,1.06,-25.30,-22.16,-66,555,-934,30.5,13.4,-0.6,30.4,1.0,-31.1,5.73,2.26,-26.0,34.4
2012-06-24 00:51:00,0.0,1.8754,0.0009,392.06,0.40,276.0,33.5,137.97,35.14,24.65,36.37,1.10,-25.31,-22.58,-66,555,-934,30.5,13.3,-0.8,30.4,1.0,-31.1,5.73,2.29,-26.0,34.4
2012-06-24 00:52:00,0.0,1.8766,0.0010,391.97,0.35,270.9,30.8,137.97,35.14,24.64,36.36,1.05,-25.32,-22.98,-66,555,-934,30.5,13.5,-0.6,30.4,1.0,-31.2,5.73,2.30,-26.0,34.5
2012-06-24 00:53:00,0.0,1.8764,0.0011,391.94,0.43,277.4,26.7,137.97,35.14,24.65,36.36,1.00,-25.33,-23.35,-66,555,-934,30.5,13.8,-0.2,30.4,1.1,-31.0,5.73,2.27,-26.0,34.4
2012-06-24 00:54:00,0.0,1.8762,0.0011,391.87,0.41,273.9,27.6,137.97,35.14,24.65,36.37,1.03,-25.34,-23.70,-66,555,-935,30.5,13.5,-0.5,30.4,1.0,-31.4,5.73,2.27,-26.0,34.4
2012-06-24 00:55:00,0.0,1.8764,0.0008,391.86,0.43,277.9,29.4,137.97,35.15,24.65,36.37,1.08,-25.36,-24.04,-66,555,-935,30.5,13.9,-0.2,30.4,1.0,-31.4,5.73,2.30,-26.0,34.4
2012-06-24 00:56:00,0.0,1.8769,0.0009,391.68,0.35,281.7,33.1,137.97,35.15,24.65,36.37,1.07,-25.37,-24.36,-66,555,-934,30.5,14.0,-0.0,30.4,1.0,-31.5,5.73,2.29,-26.0,34.4
2012-06-24 00:57:00,0.0,1.8767,0.0009,391.87,0.38,275.9,27.3,137.97,35.15,24.65,36.37,1.01,-25.37,-24.66,-66,555,-934,30.5,13.8,-0.3,30.4,1.0,-31.5,5.73,2.27,-26.0,34.5
2012-06-24 00:58:00,0.0,1.8770,0.0009,391.92,0.34,276.4,29.5,137.97,35.15,24.64,36.36,0.99,-25.39,-24.94,-66,555,-934,30.5,14.0,-0.1,30.4,1.0,-31.4,5.73,2.28,-26.0,34.4
2012-06-24 00:59:00,0.0,1.8768,0.0009,391.82,0.41,277.9,25.6,137.97,35.15,24.64,36.36,1.06,-25.40,-25.21,-66,555,-934,30.5,13.7,-0.3,30.4,1.0,-31.3,5.73,2.30,-26.0,34.4
2012-06-24 01:00:00,0.0,1.8769,0.0009,391.87,0.41,272.1,28.5,137.97,35.15,24.64,36.36,1.06,-25.41,-25.40,-66,555,-935,30.5,14.0,-0.1,30.4,1.0,-31.4,5.73,2.27,-26.0,34.4
2012-06-24 01:01:00,0.0,1.8769,0.0009,391.79,0.40,280.4,27.2,137.97,35.15,24.64,36.36,1.06,-25.42,-25.17,-66,555,-935,30.5,13.8,-0.3,30.4,1.0,-31.3,5.73,2.27,-26.0,34.4
2012-06-24 01:02:00,0.0,1.8769,0.0010,391.82,0.37,274.3,31.4,137.97,35.15,24.64,36.37,1.03,-25.43,-25.27,-66,555,-934,30.5,13.8,-0.2,30.4,1.0,-31.3,5.73,2.30,-26.1,34.4
2012-06-24 01:03:00,0.0,1.8768,0.0009,391.72,0.41,283.7,30.6,137.97,35.15,24.64,36.36,0.96,-25.44,-25.44,-66,555,-934,30.5,13.8,-0.2,30.4,1.0,-31.5,5.73,2.29,-26.0,34.4
2012-06-24 01:04:00,0.0,1.8766,0.0009,391.71,0.39,272.8,32.7,137.97,35.15,24.64,36.37,1.03,-25.45,-25.20,-66,555,-934,30.5,13.9,-0.1,30.4,1.0,-31.5,5.73,2.26,-26.0,34.4
2012-06-24 01:05:00,0.0,1.8766,0.0009,391.70,0.37,269.5,28.9,137.97,35.15,24.64,36.37,1.03,-25.46,-25.28,-66,555,-935,30.5,14.0,-0.1,30.4,1.0,-31.5,5.73,2.28,-26.0,34.4
2012-06-24 01:06:00,0.0,1.8766,0.0010,391.69,0.36,280.7,31.0,137.97,35.15,24.64,36.36,1.06,-25.47,-25.46,-66,555,-935,30.5,14.0,-0.0,30.4,1.0,-31.3,5.73,2.31,-26.0,34.4
2012-06-24 01:07:00,0.0,1.8767,0.0010,391.57,0.39,269.5,29.9,137.97,35.15,24.64,36.37,1.05,-25.48,-25.25,-66,555,-935,30.5,14.2,0.2,30.4,1.0,-31.3,5.73,2.28,-26.0,34.4
2012-06-24 01:08:00,0.0,1.8775,0.0008,391.64,0.38,272.8,29.0,137.97,35.15,24.64,36.37,1.04,-25.49,-25.30,-66,555,-934,30.5,13.8,-0.2,30.4,1.0,-31.4,5.73,2.27,-26.0,34.4
2012-06-24 01:09:00,0.0,1.8774,0.0010,391.73,0.43,275.7,28.5,137.97,35.15,24.64,36.36,0.98,-25.50,-25.49,-66,555,-934,30.5,14.2,0.1,30.4,1.0,-31.4,5.73,2.30,-26.0,34.4
2012-06-24 01:10:00,0.0,1.8776,0.0009,391.42,0.44,274.3,26.4,137.97,35.15,24.65,36.37,1.03,-25.51,-25.29,-65,555,-935,30.5,14.6,0.5,30.4,1.0,-31.4,5.73,2.30,-26.0,34.4
2012-06-24 01:11:00,0.0,1.8785,0.0008,391.35,0.32,266.3,33.3,137.97,35.15,24.64,36.36,1.02,-25.52,-25.32,-65,555,-935,30.5,15.0,0.9,30.4,1.0,-31.2,5.73,2.27,-26.0,34.4
2012-06-24 01:12:00,0.0,1.8787,0.0009,391.41,0.42,272.6,34.8,137.97,35.15,24.64,36.36,1.07,-25.52,-25.51,-66,555,-935,30.5,14.9,0.9,30.4,1.0,-31.4,5.73,2.28,-26.0,34.4
2012-06-24 01:13:00,0.0,1.8776,0.0010,391.35,0.42,268.9,27.7,137.97,35.15,24.64,36.37,1.03,-25.54,-25.33,-66,555,-934,30.5,14.6,0.6,30.4,1.0,-31.5,5.73,2.30,-26.0,34.3
2012-06-24 01:14:00,0.0,1.8777,0.0010,391.51,0.30,270.2,28.5,137.97,35.15,24.64,36.37,1.05,-25.54,-25.34,-66,555,-934,30.4,14.1,0.0,30.4,1.0,-31.3,5.73,2.29,-26.0,34.4
2012-06-24 01:15:00,0.0,1.8765,0.0011,391.64,0.36,276.8,29.6,137.97,35.15,24.64,36.36,0.98,-25.54,-25.53,-66,555,-934,30.5,14.0,-0.0,30.4,1.0,-31.2,5.73,2.27,-26.0,34.4
2012-06-24 01:16:00,0.0,1.8769,0.0011,391.36,0.43,272.2,30.4,137.97,35.15,24.64,36.37,0.97,-24.87,-25.75,-66,555,-934,30.4,14.6,0.5,30.4,1.0,-31.7,5.73,2.30,-26.0,34.4
2012-06-24 01:17:00,0.0,1.8777,0.0011,391.43,0.37,271.2,33.6,137.97,35.15,24.64,36.36,0.97,-23.13,-25.93,-66,555,-935,30.5,14.5,0.4,30.4,1.0,-31.1,5.73,2.29,-26.0,34.4
2012-06-24 01:18:00,0.0,1.8765,0.0009,391.60,0.34,278.5,27.4,137.97,35.15,24.65,36.36,0.96,-21.17,-26.05,-66,555,-935,30.5,14.1,0.1,30.4,1.2,-30.0,5.73,2.27,-26.0,34.5
2012-06-24 01:19:00,0.0,1.8766,0.0009,391.56,0.42,269.9,30.3,137.97,35.15,24.64,36.37,0.94,-19.25,-26.13,-66,555,-934,30.5,14.1,0.0,30.4,1.2,-29.5,5.73,2.28,-26.0,34.4
2012-06-24 01:20:00,0.0,1.8761,0.0010,391.42,0.38,271.4,30.7,137.97,35.15,24.64,36.37,0.92,-17.42,-26.18,-66,555,-934,30.5,14.0,-0.0,30.4,1.2,-29.3,5.73,2.30,-26.0,34.4
2012-06-24 01:21:00,0.0,1.8769,0.0010,391.53,0.39,270.7,34.0,137.97,35.15,24.64,36.37,0.88,-15.68,-26.21,-66,555,-934,30.5,13.7,-0.3,30.4,1.2,-29.4,5.73,2.27,-26.0,34.4
2012-06-24 01:22:00,0.0,1.8760,0.0010,391.54,0.40,274.7,22.2,137.97,35.15,24.64,36.37,0.89,-14.02,-26.23,-66,555,-933,30.5,13.5,-0.6,30.4,1.2,-29.7,5.73,2.27,-26.0,34.5
2012-06-24 01:23:00,0.0,1.8759,0.0011,391.45,0.41,270.5,27.1,137.97,35.15,24.64,36.37,0.92,-12.45,-26.26,-66,555,-933,30.5,13.7,-0.3,30.4,1.2,-29.9,5.73,2.29,-26.0,34.4
2012-06-24 01:24:00,0.0,1.8759,0.0012,391.57,0.42,278.5,33.0,137.97,35.15,24.64,36.37,0.94,-10.98,-26.28,-66,555,-934,30.5,13.6,-0.5,30.4,1.2,-30.1,5.73,2.29,-26.1,34.3
2012-06-24 01:25:00,0.0,1.8762,0.0009,391.54,0.33,272.1,31.3,137.97,35.15,24.64,36.36,0.93,-9.58,-26.29,-66,555,-934,30.4,13.7,-0.4,30.4,1.1,-30.3,5.73,2.26,-26.1,34.3
2012-06-24 01:26:00,0.0,1.8762,0.0010,391.55,0.40,269.5,30.2,137.97,35.16,24.64,36.37,0.93,-8.25,-26.30,-66,554,-934,30.4,13.4,-0.7,30.4,1.1,-30.4,5.73,2.29,-26.1,34.3
2012-06-24 01:27:00,0.0,1.8763,0.0010,391.57,0.38,279.4,33.6,137.97,35.16,24.64,36.36,0.94,-6.97,-26.30,-66,555,-934,30.4,13.2,-0.9,30.4,1.1,-30.6,5.73,2.29,-26.1,34.3
2012-06-24 01:28:00,0.0,1.8762,0.0012,391.46,0.37,276.0,31.1,137.97,35.15,24.64,36.37,0.96,-5.75,-26.31,-66,555,-934,30.4,13.1,-1.0,30.4,1.1,-30.7,5.73,2.28,-26.0,34.3
2012-06-24 01:29:00,0.0,1.8762,0.0009,391.53,0.36,263.6,31.1,137.97,35.15,24.64,36.37,0.97,-4.61,-26.32,-66,555,-934,30.4,13.1,-0.9,30.3,1.1,-30.9,5.73,2.27,-26.1,34.3
2012-06-24 01:30:00,0.0,1.8759,0.0010,391.50,0.40,270.7,31.1,137.97,35.15,24.64,36.37,0.96,-3.52,-26.32,-66,555,-934,30.4,13.2,-1.0,30.3,1.1,-31.0,5.73,2.30,-26.1,34.3
2012-06-24 01:31:00,0.0,1.8763,0.0011,391.55,0.42,261.7,33.4,137.97,35.16,24.64,36.36,0.96,-2.49,-26.32,-66,555,-933,30.4,13.4,-0.7,30.4,1.0,-31.2,5.73,2.28,-26.1,34.3
2012-06-24 01:32:00,0.0,1.8760,0.0011,391.46,0.43,271.6,32.7,137.97,35.16,24.64,36.36,0.96,-1.51,-26.32,-66,555,-934,30.4,13.4,-0.7,30.3,1.0,-31.2,5.73,2.27,-26.1,34.3
2012-06-24 01:33:00,0.0,1.8764,0.0009,391.56,0.43,273.2,31.8,137.97,35.16,24.64,36.36,0.96,-0.58,-26.32,-66,555,-934,30.4,13.7,-0.4,30.3,1.0,-31.4,5.73,2.30,-26.0,34.4
2012-06-24 01:34:00,0.0,1.8770,0.0010,391.37,0.42,279.1,28.9,137.97,35.16,24.64,36.36,0.96,0.30,-26.31,-66,555,-934,30.4,14.1,0.0,30.3,1.0,-31.5,5.73,2.30,-26.0,34.4
2012-06-24 01:35:00,0.0,1.8766,0.0011,391.31,0.42,270.9,34.0,137.97,35.16,24.64,36.37,0.95,1.14,-26.31,-66,554,-934,30.4,13.6,-0.5,30.4,1.0,-31.3,5.73,2.27,-26.0,34.3
2012-06-24 01:36:00,0.0,1.8763,0.0012,391.46,0.40,275.3,32.0,137.97,35.16,24.65,36.37,0.95,1.92,-26.30,-66,555,-934,30.4,13.6,-0.5,30.3,1.0,-31.5,5.73,2.29,-26.0,34.3
2012-06-24 01:37:00,0.0,1.8762,0.0010,391.30,0.38,269.4,31.9,137.97,35.16,24.65,36.36,0.94,2.62,-26.29,-66,554,-934,30.4,13.8,-0.3,30.3,1.0,-31.7,5.73,2.31,-26.0,34.3
2012-06-24 01:38:00,0.0,1.8768,0.0010,391.36,0.43,276.0,35.3,137.97,35.16,24.64,36.37,0.96,3.03,-26.29,-66,555,-933,30.4,13.6,-0.6,30.4,1.0,-31.7,5.73,2.28,-26.0,34.3
2012-06-24 01:39:00,0.0,1.8768,0.0010,391.20,0.40,274.5,27.3,137.97,35.16,24.64,36.37,0.94,3.28,-26.28,-66,555,-933,30.4,13.9,-0.2,30.3,1.0,-31.7,5.73,2.28,-26.0,34.3
2012-06-24 01:40:00,0.0,1.8764,0.0012,391.36,0.42,275.6,34.3,137.97,35.16,24.64,36.36,0.94,3.79,-26.28,-66,555,-933,30.4,13.5,-0.6,30.3,1.0,-31.6,5.73,2.30,-26.0,34.3
2012-06-24 01:41:00,0.0,1.8769,0.0010,391.44,0.38,270.2,36.8,137.97,35.16,24.64,36.36,0.93,4.36,-26.26,-66,554,-934,30.4,13.9,-0.3,30.3,1.0,-32.1,5.73,2.29,-26.0,34.3
2012-06-24 01:42:00,0.0,1.8769,0.0010,391.14,0.40,275.3,26.2,137.97,35.16,24.64,36.37,0.97,4.95,-26.26,-66,555,-934,30.4,14.1,-0.0,30.3,0.9,-32.2,5.73,2.27,-26.0,34.3
2012-06-24 01:43:00,0.0,1.8767,0.0008,391.19,0.42,268.8,33.1,137.97,35.16,24.64,36.36,0.94,5.52,-26.25,-66,555,-934,30.4,13.7,-0.4,30.3,1.0,-32.0,5.73,2.29,-26.0,34.3
2012-06-24 01:44:00,0.0,1.8769,0.0009,391.29,0.38,273.2,28.9,137.97,35.16,24.64,36.36,0.94,6.06,-26.24,-66,555,-934,30.4,13.8,-0.3,30.3,1.0,-32.1,5.73,2.30,-26.0,34.4
2012-06-24 01:45:00,0.0,1.8765,0.0011,391.23,0.36,275.6,36.6,137.97,35.16,24.64,36.37,0.95,6.56,-26.23,-66,554,-934,30.4,13.8,-0.3,30.3,0.9,-32.2,5.73,2.27,-26.0,34.4
2012-06-24 01:46:00,0.0,1.8765,0.0011,391.31,0.35,268.9,30.8,137.97,35.15,24.64,36.37,0.95,7.04,-26.22,-66,555,-933,30.4,14.0,-0.1,30.3,1.0,-31.9,5.73,2.28,-26.0,34.4
2012-06-24 01:47:00,0.0,1.8769,0.0010,391.24,0.42,277.0,33.3,137.97,35.15,24.64,36.37,0.96,7.52,-26.21,-66,555,-933,30.4,14.3,0.1,30.3,1.0,-32.0,5.73,2.30,-26.0,34.4
2012-06-24 01:48:00,0.0,1.8771,0.0009,391.34,0.41,269.5,26.9,137.97,35.15,24.64,36.37,0.95,7.97,-26.21,-66,555,-933,30.4,14.3,0.2,30.3,1.0,-31.9,5.73,2.29,-26.0,34.4
2012-06-24 01:49:00,0.0,1.8773,0.0009,391.26,0.42,271.1,27.7,137.97,35.15,24.64,36.36,0.94,8.40,-26.20,-65,555,-933,30.4,14.7,0.5,30.4,1.0,-32.0,5.73,2.28,-26.0,34.4
2012-06-24 01:50:00,0.0,1.8774,0.0010,391.24,0.39,274.3,31.4,137.97,35.15,24.64,36.36,0.97,8.82,-26.19,-66,555,-933,30.4,14.2,0.1,30.4,1.0,-32.0,5.73,2.29,-26.0,34.4
2012-06-24 01:51:00,0.0,1.8774,0.0013,391.27,0.43,273.9,26.4,137.97,35.15,24.64,36.36,0.96,9.22,-26.18,-66,554,-933,30.4,14.1,-0.0,30.3,1.0,-32.0,5.73,2.30,-26.0,34.4
2012-06-24 01:52:00,0.0,1.8769,0.0010,391.28,0.42,270.7,25.3,137.97,35.16,24.64,36.36,0.96,9.61,-26.17,-66,555,-934,30.4,13.9,-0.3,30.3,1.0,-32.0,5.73,2.27,-26.0,34.4
2012-06-24 01:53:00,0.0,1.8765,0.0010,391.34,0.41,272.3,29.8,137.97,35.16,24.64,36.36,0.97,10.00,-26.16,-65,555,-934,30.4,14.2,0.1,30.3,1.0,-32.0,5.73,2.28,-26.1,34.4
2012-06-24 01:54:00,0.0,1.8773,0.0008,391.07,0.38,270.1,31.6,137.97,35.15,24.64,36.37,0.95,10.36,-26.15,-66,555,-934,30.4,14.3,0.2,30.3,1.0,-32.2,5.73,2.30,-26.0,34.3
2012-06-24 01:55:00,0.0,1.8771,0.0010,391.23,0.38,278.3,33.2,137.97,35.15,24.64,36.36,0.96,10.72,-26.14,-66,555,-933,30.4,14.2,0.1,30.3,1.0,-32.1,5.73,2.28,-26.1,34.4
2012-06-24 01:56:00,0.0,1.8764,0.0011,391.17,0.37,264.9,31.0,137.97,35.15,24.64,36.37,0.97,11.07,-26.13,-66,555,-933,30.4,14.0,-0.1,30.3,1.0,-32.1,5.73,2.27,-26.1,34.3
2012-06-24 01:57:00,0.0,1.8768,0.0011,391.37,0.39,265.0,28.0,137.97,35.15,24.64,36.36,0.97,11.40,-26.12,-66,555,-933,30.4,14.0,-0.1,30.3,0.9,-32.4,5.73,2.30,-26.1,34.3
2012-06-24 01:58:00,0.0,1.8765,0.0009,391.19,0.38,270.6,33.4,137.97,35.15,24.64,36.36,0.96,11.72,-26.12,-66,555,-933,30.4,14.3,0.1,30.3,1.0,-32.1,5.73,2.29,-26.1,34.4
2012-06-24 01:59:00,0.0,1.8768,0.0010,391.16,0.32,265.6,28.3,137.97,35.16,24.64,36.36,0.97,12.03,-26.11,-66,555,-933,30.4,14.0,-0.2,30.3,0.9,-32.3,5.73,2.26,-26.1,34.4
2012-06-24 02:00:00,0.0,1.8764,0.0009,391.19,0.40,269.2,29.3,137.97,35.15,24.64,36.37,0.97,12.33,-26.10,-66,555,-934,30.4,13.4,-0.7,30.3,0.9,-32.4,5.73,2.29,-26.1,34.3
2012-06-24 02:01:00,0.0,1.8769,0.0010,391.11,0.43,275.2,29.4,137.97,35.15,24.64,36.36,0.97,12.61,-26.09,-66,554,-934,30.4,14.4,0.3,30.3,0.9,-32.4,5.73,2.30,-26.1,34.3
2012-06-24 02:02:00,0.0,1.8772,0.0010,390.91,0.37,269.4,30.2,137.97,35.15,24.64,36.37,0.98,12.89,-26.09,-66,555,-934,30.4,14.5,0.3,30.3,1.0,-32.1,5.73,2.27,-26.1,34.3
2012-06-24 02:03:00,0.0,1.8766,0.0011,391.18,0.38,274.7,30.0,137.97,35.15,24.64,36.36,0.96,13.15,-26.08,-66,554,-933,30.3,13.6,-0.6,30.3,0.9,-32.3,5.73,2.28,-26.1,34.3
2012-06-24 02:04:00,0.0,1.8765,0.0010,391.10,0.41,269.2,28.7,137.97,35.15,24.65,36.37,0.99,13.40,-26.07,-66,555,-933,30.4,14.3,0.1,30.3,0.9,-32.3,5.73,2.31,-26.1,34.4
2012-06-24 02:05:00,0.0,1.8765,0.0010,390.85,0.34,262.9,25.6,137.97,35.15,24.64,36.36,0.99,13.65,-26.07,-66,555,-933,30.4,14.6,0.5,30.3,0.9,-32.3,5.73,2.28,-26.1,34.3
2012-06-24 02:06:00,0.0,1.8764,0.0010,390.97,0.36,264.8,34.8,137.97,35.15,24.65,36.37,0.97,13.88,-26.06,-66,554,-933,30.4,13.8,-0.4,30.3,0.9,-32.4,5.73,2.27,-26.1,34.3
2012-06-24 02:07:00,0.0,1.8765,0.0009,391.14,0.45,269.2,30.9,137.97,35.15,24.65,36.37,0.97,14.10,-26.05,-66,555,-933,30.3,13.6,-0.5,30.3,0.9,-32.4,5.73,2.29,-26.2,34.3
2012-06-24 02:08:00,0.0,1.8771,0.0011,391.13,0.41,270.5,29.5,137.97,35.15,24.64,36.37,0.96,14.32,-26.05,-66,554,-933,30.3,13.4,-0.7,30.3,0.9,-32.2,5.73,2.29,-26.2,34.3
2012-06-24 02:09:00,0.0,1.8766,0.0011,391.30,0.40,268.8,29.1,137.97,35.15,24.64,36.37,0.97,14.52,-26.04,-66,555,-934,30.3,13.7,-0.4,30.3,0.9,-32.2,5.73,2.27,-26.2,34.3
2012-06-24 02:10:00,0.0,1.8770,0.0009,391.05,0.41,260.2,32.8,137.97,35.15,24.64,36.37,0.98,14.72,-26.04,-66,555,-934,30.3,14.1,-0.0,30.3,0.9,-32.4,5.73,2.29,-26.2,34.3
2012-06-24 02:11:00,0.0,1.8768,0.0010,391.45,0.39,268.1,25.4,137.97,35.16,24.64,36.36,0.97,14.91,-26.03,-66,554,-934,30.4,13.3,-0.9,30.3,0.9,-32.3,5.73,2.30,-26.2,34.3
2012-06-24 02:12:00,0.0,1.8765,0.0008,391.15,0.40,262.3,26.9,137.97,35.16,24.64,36.37,0.98,15.09,-26.02,-66,554,-934,30.4,13.8,-0.4,30.3,0.9,-32.4,5.73,2.27,-26.2,34.2
2012-06-24 02:13:00,0.0,1.8762,0.0011,391.18,0.47,259.9,28.4,137.97,35.16,24.65,36.37,0.97,15.26,-26.02,-66,554,-933,30.3,13.0,-1.2,30.3,0.9,-32.4,5.73,2.28,-26.2,34.2
2012-06-24 02:14:00,0.0,1.8760,0.0010,391.42,0.43,273.8,31.3,137.97,35.16,24.64,36.37,0.99,15.42,-26.01,-66,554,-933,30.3,12.8,-1.4,30.3,0.9,-32.3,5.73,2.30,-26.2,34.2
2012-06-24 02:15:00,0.0,1.8761,0.0010,391.41,0.49,258.9,26.8,137.97,35.16,24.64,36.36,0.97,15.58,-26.01,-66,554,-933,30.4,12.9,-1.2,30.3,0.9,-32.3,5.73,2.27,-26.2,34.3
2012-06-24 02:16:00,0.0,1.8760,0.0010,391.49,0.37,266.8,29.1,137.97,35.16,24.64,36.35,0.97,15.73,-26.00,-66,555,-933,30.3,12.9,-1.3,30.3,0.9,-32.3,5.73,2.27,-26.2,34.3
2012-06-24 02:17:00,0.0,1.8764,0.0009,391.23,0.35,260.2,23.7,137.97,35.15,24.64,36.36,0.97,15.87,-26.01,-66,554,-933,30.3,13.0,-1.1,30.3,0.9,-32.4,5.73,2.30,-26.2,34.4
2012-06-24 02:18:00,0.0,1.8764,0.0009,391.45,0.39,263.1,29.2,137.97,35.15,24.65,36.36,0.97,16.01,-26.00,-66,555,-933,30.3,13.0,-1.2,30.3,0.9,-32.3,5.73,2.28,-26.2,34.3
2012-06-24 02:19:00,0.0,1.8770,0.0009,390.96,0.43,264.9,25.7,137.97,35.15,24.64,36.37,0.96,16.15,-26.00,-66,555,-933,30.3,14.0,-0.1,30.3,0.9,-32.2,5.73,2.26,-26.2,34.3